Time,TemperatureF,DewpointF,PressureIn,WindDirection,WindDirectionDegrees,WindSpeedMPH,WindSpeedGustMPH,Humidity,HourlyPrecipIn,Conditions,Clouds,dailyrainin,SoftwareType,DateUTC
2013-06-22 03:04:00,64.7,53.5,30.15,ESE,114,0.0,0.0,67,0.00,,,0.00,VWS V14.00,2013-06-22 07:04:00,
2013-06-22 03:05:00,64.7,53.5,30.15,ESE,114,0.0,1.0,67,0.00,,,0.00,VWS V14.00,2013-06-22 07:05:00,
2013-06-22 03:10:00,64.5,53.3,30.15,SE,140,1.0,2.0,67,0.00,,,0.00,VWS V14.00,2013-06-22 07:10:00,
2013-06-22 03:15:00,64.5,53.3,30.15,SE,125,0.0,0.0,67,0.00,,,0.00,VWS V14.00,2013-06-22 07:15:00,
2013-06-22 03:20:00,64.3,53.5,30.15,SE,125,0.0,0.0,68,0.00,,CLR,0.00,VWS V14.00,2013-06-22 07:20:00,
2013-06-22 03:25:00,64.3,53.5,30.15,East,80,0.0,1.0,68,0.00,,CLR,0.00,VWS V14.00,2013-06-22 07:25:00,
2013-06-22 03:30:00,64.2,53.4,30.15,East,80,0.0,0.0,68,0.00,,CLR,0.00,VWS V14.00,2013-06-22 07:30:00,
2013-06-22 03:35:00,64.2,53.4,30.15,East,80,0.0,1.0,68,0.00,,CLR,0.00,VWS V14.00,2013-06-22 07:35:00,
2013-06-22 03:40:00,64.0,53.6,30.15,East,80,0.0,0.0,69,0.00,,CLR,0.00,VWS V14.00,2013-06-22 07:40:00,
2013-06-22 03:45:00,64.0,53.6,30.15,East,80,0.0,0.0,69,0.00,,CLR,0.00,VWS V14.00,2013-06-22 07:45:00,
2013-06-22 03:50:00,63.9,53.5,30.15,East,80,0.0,0.0,69,0.00,,CLR,0.00,VWS V14.00,2013-06-22 07:50:00,
2013-06-22 03:55:00,63.7,53.7,30.15,East,80,0.0,0.0,70,0.00,,CLR,0.00,VWS V14.00,2013-06-22 07:55:00,
2013-06-22 04:00:00,63.5,53.5,30.15,East,80,0.0,0.0,70,0.00,,CLR,0.00,VWS V14.00,2013-06-22 08:00:00,
2013-06-22 04:05:00,63.4,53.8,30.15,East,80,0.0,0.0,71,0.00,,CLR,0.00,VWS V14.00,2013-06-22 08:05:00,
2013-06-22 04:10:00,63.2,53.7,30.15,East,80,0.0,0.0,71,0.00,,CLR,0.00,VWS V14.00,2013-06-22 08:10:00,
2013-06-22 04:15:00,63.1,53.6,30.15,East,80,0.0,0.0,71,0.00,,CLR,0.00,VWS V14.00,2013-06-22 08:15:00,
2013-06-22 04:20:00,62.9,53.8,30.15,East,80,0.0,0.0,72,0.00,,CLR,0.00,VWS V14.00,2013-06-22 08:20:00,
2013-06-22 04:25:00,62.7,53.5,30.15,East,80,0.0,1.0,72,0.00,,CLR,0.00,VWS V14.00,2013-06-22 08:25:00,
2013-06-22 04:30:00,62.6,53.8,30.15,East,80,0.0,0.0,73,0.00,,CLR,0.00,VWS V14.00,2013-06-22 08:30:00,
2013-06-22 04:35:00,62.4,53.6,30.16,East,80,0.0,0.0,73,0.00,,CLR,0.00,VWS V14.00,2013-06-22 08:35:00,
2013-06-22 04:40:00,62.3,53.5,30.16,East,80,0.0,0.0,73,0.00,,CLR,0.00,VWS V14.00,2013-06-22 08:40:00,
2013-06-22 04:45:00,62.1,53.7,30.16,East,80,0.0,1.0,74,0.00,,CLR,0.00,VWS V14.00,2013-06-22 08:45:00,
2013-06-22 04:50:00,62.0,53.6,30.16,East,86,0.0,0.0,74,0.00,,CLR,0.00,VWS V14.00,2013-06-22 08:50:00,
2013-06-22 04:55:00,61.8,53.4,30.16,East,86,0.0,2.0,74,0.00,,CLR,0.00,VWS V14.00,2013-06-22 08:55:00,
2013-06-22 05:00:00,61.8,53.4,30.16,East,86,0.0,1.0,74,0.00,,CLR,0.00,VWS V14.00,2013-06-22 09:00:00,
2013-06-22 05:05:00,61.6,53.6,30.16,South,171,0.0,1.0,75,0.00,,CLR,0.00,VWS V14.00,2013-06-22 09:05:00,
2013-06-22 05:10:00,61.5,53.5,30.16,East,95,0.0,2.0,75,0.00,,CLR,0.00,VWS V14.00,2013-06-22 09:10:00,
2013-06-22 05:15:00,61.5,53.5,30.16,East,96,0.0,1.0,75,0.00,,CLR,0.00,VWS V14.00,2013-06-22 09:15:00,
2013-06-22 05:20:00,61.5,53.5,30.17,East,96,0.0,0.0,75,0.00,,CLR,0.00,VWS V14.00,2013-06-22 09:20:00,
2013-06-22 05:25:00,61.5,53.5,30.17,East,94,0.0,0.0,75,0.00,,CLR,0.00,VWS V14.00,2013-06-22 09:25:00,
2013-06-22 05:30:00,61.3,53.3,30.17,East,94,0.0,1.0,75,0.00,,CLR,0.00,VWS V14.00,2013-06-22 09:30:00,
2013-06-22 05:35:00,61.3,53.3,30.16,East,94,0.0,1.0,75,0.00,,CLR,0.00,VWS V14.00,2013-06-22 09:35:00,
2013-06-22 05:40:00,61.3,53.3,30.16,East,100,0.0,2.0,75,0.00,,CLR,0.00,VWS V14.00,2013-06-22 09:40:00,
2013-06-22 05:45:00,61.3,53.7,30.16,ESE,102,1.0,2.0,76,0.00,,CLR,0.00,VWS V14.00,2013-06-22 09:45:00,
2013-06-22 05:50:00,61.3,53.7,30.16,ESE,102,0.0,1.0,76,0.00,,CLR,0.00,VWS V14.00,2013-06-22 09:50:00,
2013-06-22 05:55:00,61.3,53.7,30.16,ESE,102,0.0,1.0,76,0.00,,CLR,0.00,VWS V14.00,2013-06-22 09:55:00,
2013-06-22 06:00:00,61.3,53.7,30.16,ESE,102,0.0,1.0,76,0.00,,CLR,0.00,VWS V14.00,2013-06-22 10:00:00,
2013-06-22 06:05:00,61.3,53.7,30.15,ESE,102,0.0,0.0,76,0.00,,CLR,0.00,VWS V14.00,2013-06-22 10:05:00,
2013-06-22 06:10:00,61.3,53.7,30.15,ESE,121,0.0,0.0,76,0.00,,CLR,0.00,VWS V14.00,2013-06-22 10:10:00,
2013-06-22 06:15:00,61.3,53.7,30.15,ENE,67,0.0,2.0,76,0.00,,CLR,0.00,VWS V14.00,2013-06-22 10:15:00,
2013-06-22 06:20:00,61.3,53.7,30.14,ENE,68,1.0,2.0,76,0.00,,CLR,0.00,VWS V14.00,2013-06-22 10:20:00,
2013-06-22 06:25:00,61.3,53.7,30.14,SE,128,1.0,2.0,76,0.00,,CLR,0.00,VWS V14.00,2013-06-22 10:25:00,
2013-06-22 06:30:00,61.3,53.7,30.14,SE,128,0.0,0.0,76,0.00,,CLR,0.00,VWS V14.00,2013-06-22 10:30:00,
2013-06-22 06:35:00,61.3,53.7,30.15,SE,125,2.0,3.0,76,0.00,,CLR,0.00,VWS V14.00,2013-06-22 10:35:00,
2013-06-22 06:40:00,61.5,53.9,30.15,ESE,113,0.0,1.0,76,0.00,,CLR,0.00,VWS V14.00,2013-06-22 10:40:00,
2013-06-22 06:45:00,61.5,53.5,30.15,ESE,113,0.0,0.0,75,0.00,,CLR,0.00,VWS V14.00,2013-06-22 10:45:00,
2013-06-22 06:50:00,61.6,53.6,30.16,ESE,113,0.0,0.0,75,0.00,,CLR,0.00,VWS V14.00,2013-06-22 10:50:00,
2013-06-22 06:55:00,61.6,54.0,30.16,ESE,113,0.0,0.0,76,0.00,,CLR,0.00,VWS V14.00,2013-06-22 10:55:00,
2013-06-22 07:00:00,61.6,54.0,30.16,ESE,113,0.0,0.0,76,0.00,,CLR,0.00,VWS V14.00,2013-06-22 11:00:00,
2013-06-22 07:05:00,61.8,54.2,30.16,ESE,113,0.0,0.0,76,0.00,,CLR,0.00,VWS V14.00,2013-06-22 11:05:00,
2013-06-22 07:10:00,61.8,54.2,30.16,ESE,113,0.0,0.0,76,0.00,,CLR,0.00,VWS V14.00,2013-06-22 11:10:00,
2013-06-22 07:15:00,62.0,54.7,30.16,ESE,113,0.0,0.0,77,0.00,,CLR,0.00,VWS V14.00,2013-06-22 11:15:00,
2013-06-22 07:20:00,62.0,54.7,30.15,ESE,113,0.0,0.0,77,0.00,,CLR,0.00,VWS V14.00,2013-06-22 11:20:00,
2013-06-22 07:25:00,62.0,55.1,30.15,ESE,113,0.0,0.0,78,0.00,,CLR,0.00,VWS V14.00,2013-06-22 11:25:00,
2013-06-22 07:30:00,62.0,55.8,30.15,ESE,113,0.0,0.0,80,0.00,,CLR,0.00,VWS V14.00,2013-06-22 11:30:00,
2013-06-22 07:35:00,61.6,55.4,30.15,ESE,113,0.0,1.0,80,0.00,,CLR,0.00,VWS V14.00,2013-06-22 11:35:00,
2013-06-22 07:40:00,61.6,55.4,30.15,ESE,113,0.0,0.0,80,0.00,,CLR,0.00,VWS V14.00,2013-06-22 11:40:00,
2013-06-22 07:45:00,61.6,55.7,30.15,ESE,113,0.0,0.0,81,0.00,,CLR,0.00,VWS V14.00,2013-06-22 11:45:00,
2013-06-22 07:50:00,61.8,55.9,30.15,ESE,113,0.0,1.0,81,0.00,,CLR,0.00,VWS V14.00,2013-06-22 11:50:00,
2013-06-22 07:55:00,62.1,56.2,30.15,ESE,113,0.0,0.0,81,0.00,,CLR,0.00,VWS V14.00,2013-06-22 11:55:00,
2013-06-22 08:00:00,62.3,56.1,30.15,ESE,113,0.0,0.0,80,0.00,,CLR,0.00,VWS V14.00,2013-06-22 12:00:00,
2013-06-22 08:05:00,62.7,55.8,30.16,ESE,113,0.0,0.0,78,0.00,,CLR,0.00,VWS V14.00,2013-06-22 12:05:00,
2013-06-22 08:10:00,63.4,56.1,30.16,ESE,113,1.0,2.0,77,0.00,,CLR,0.00,VWS V14.00,2013-06-22 12:10:00,
2013-06-22 08:15:00,63.9,55.8,30.16,SE,135,0.0,0.0,75,0.00,,CLR,0.00,VWS V14.00,2013-06-22 12:15:00,
2013-06-22 08:20:00,64.3,55.8,30.16,SE,135,0.0,0.0,74,0.00,,CLR,0.00,VWS V14.00,2013-06-22 12:20:00,
2013-06-22 08:25:00,64.8,56.3,30.16,SE,135,0.0,1.0,74,0.00,,CLR,0.00,VWS V14.00,2013-06-22 12:25:00,
2013-06-22 08:30:00,65.2,56.7,30.16,SE,136,1.0,1.0,74,0.00,,CLR,0.00,VWS V14.00,2013-06-22 12:30:00,
2013-06-22 08:35:00,65.5,56.6,30.16,ESE,123,0.0,1.0,73,0.00,,CLR,0.00,VWS V14.00,2013-06-22 12:35:00,
2013-06-22 08:40:00,65.6,56.0,30.16,SE,138,0.0,2.0,71,0.00,,CLR,0.00,VWS V14.00,2013-06-22 12:40:00,
2013-06-22 08:45:00,66.1,56.0,30.16,SE,138,0.0,1.0,70,0.00,,CLR,0.00,VWS V14.00,2013-06-22 12:45:00,
2013-06-22 08:50:00,66.4,55.9,30.16,SW,236,0.0,1.0,69,0.00,,CLR,0.00,VWS V14.00,2013-06-22 12:50:00,
2013-06-22 08:55:00,66.9,55.6,30.16,ESE,120,0.0,2.0,67,0.00,,CLR,0.00,VWS V14.00,2013-06-22 12:55:00,
2013-06-22 09:00:00,67.3,56.0,30.16,ESE,120,0.0,2.0,67,0.00,,CLR,0.00,VWS V14.00,2013-06-22 13:00:00,
2013-06-22 09:05:00,67.6,55.8,30.16,ESE,120,0.0,0.0,66,0.00,,CLR,0.00,VWS V14.00,2013-06-22 13:05:00,
2013-06-22 09:10:00,67.8,56.0,30.16,SE,133,1.0,3.0,66,0.00,,CLR,0.00,VWS V14.00,2013-06-22 13:10:00,
2013-06-22 09:15:00,68.3,56.9,30.16,SE,133,2.0,2.0,67,0.00,,CLR,0.00,VWS V14.00,2013-06-22 13:15:00,
2013-06-22 09:20:00,68.4,56.6,30.16,NE,55,0.0,3.0,66,0.00,,CLR,0.00,VWS V14.00,2013-06-22 13:20:00,
2013-06-22 09:25:00,68.8,57.0,30.16,SE,127,1.0,2.0,66,0.00,,CLR,0.00,VWS V14.00,2013-06-22 13:25:00,
2013-06-22 09:30:00,69.4,58.0,30.16,NE,35,0.0,1.0,67,0.00,,CLR,0.00,VWS V14.00,2013-06-22 13:30:00,
2013-06-22 09:35:00,69.8,58.4,30.16,SW,227,0.0,1.0,67,0.00,,CLR,0.00,VWS V14.00,2013-06-22 13:35:00,
2013-06-22 09:40:00,70.1,57.4,30.16,SW,226,0.0,2.0,64,0.00,,CLR,0.00,VWS V14.00,2013-06-22 13:40:00,
2013-06-22 09:45:00,70.3,57.6,30.17,SSE,154,0.0,2.0,64,0.00,,CLR,0.00,VWS V14.00,2013-06-22 13:45:00,
2013-06-22 09:50:00,70.4,56.8,30.17,SW,232,2.0,5.0,62,0.00,,CLR,0.00,VWS V14.00,2013-06-22 13:50:00,
2013-06-22 09:56:00,70.9,58.1,30.17,SE,127,0.0,1.0,64,0.00,,CLR,0.00,VWS V14.00,2013-06-22 13:56:00,
2013-06-22 10:01:00,71.3,57.2,30.16,SE,127,1.0,2.0,61,0.00,,CLR,0.00,VWS V14.00,2013-06-22 14:01:00,
2013-06-22 10:06:00,71.8,57.2,30.16,ENE,73,4.0,4.0,60,0.00,,CLR,0.00,VWS V14.00,2013-06-22 14:06:00,
2013-06-22 10:11:00,72.1,56.5,30.16,SSE,168,1.0,4.0,58,0.00,,CLR,0.00,VWS V14.00,2013-06-22 14:11:00,
2013-06-22 10:16:00,72.5,57.4,30.16,ESE,119,0.0,0.0,59,0.00,,CLR,0.00,VWS V14.00,2013-06-22 14:16:00,
2013-06-22 10:21:00,72.7,58.0,30.16,ESE,119,0.0,1.0,60,0.00,,CLR,0.00,VWS V14.00,2013-06-22 14:21:00,
2013-06-22 10:26:00,73.3,58.6,30.16,East,80,0.0,1.0,60,0.00,,CLR,0.00,VWS V14.00,2013-06-22 14:26:00,
2013-06-22 10:31:00,73.3,57.2,30.16,West,271,2.0,3.0,57,0.00,,CLR,0.00,VWS V14.00,2013-06-22 14:31:00,
2013-06-22 10:36:00,73.5,58.3,30.16,SSE,160,0.0,3.0,59,0.00,,CLR,0.00,VWS V14.00,2013-06-22 14:36:00,
2013-06-22 10:41:00,73.9,57.2,30.16,SE,146,3.0,5.0,56,0.00,,CLR,0.00,VWS V14.00,2013-06-22 14:41:00,
2013-06-22 10:46:00,73.9,57.7,30.17,West,277,2.0,2.0,57,0.00,,CLR,0.00,VWS V14.00,2013-06-22 14:46:00,
2013-06-22 10:51:00,74.2,59.4,30.17,SW,218,1.0,2.0,60,0.00,,CLR,0.00,VWS V14.00,2013-06-22 14:51:00,
2013-06-22 10:56:00,74.6,59.3,30.17,SW,223,1.0,2.0,59,0.00,,CLR,0.00,VWS V14.00,2013-06-22 14:56:00,
2013-06-22 11:01:00,75.1,59.3,30.17,SSW,209,1.0,6.0,58,0.00,,CLR,0.00,VWS V14.00,2013-06-22 15:01:00,
2013-06-22 11:06:00,75.4,58.6,30.17,WSW,242,0.0,2.0,56,0.00,,CLR,0.00,VWS V14.00,2013-06-22 15:06:00,
2013-06-22 11:11:00,75.3,58.5,30.17,West,263,2.0,2.0,56,0.00,,CLR,0.00,VWS V14.00,2013-06-22 15:11:00,
2013-06-22 11:16:00,75.6,59.8,30.17,SW,227,1.0,3.0,58,0.00,,CLR,0.00,VWS V14.00,2013-06-22 15:16:00,
2013-06-22 11:21:00,75.6,58.8,30.17,NW,315,0.0,2.0,56,0.00,,CLR,0.00,VWS V14.00,2013-06-22 15:21:00,
2013-06-22 11:26:00,75.8,58.5,30.17,WSW,246,1.0,3.0,55,0.00,,CLR,0.00,VWS V14.00,2013-06-22 15:26:00,
2013-06-22 11:31:00,76.0,58.2,30.17,WNW,296,1.0,3.0,54,0.00,,CLR,0.00,VWS V14.00,2013-06-22 15:31:00,
2013-06-22 11:36:00,76.3,58.5,30.17,South,189,2.0,2.0,54,0.00,,CLR,0.00,VWS V14.00,2013-06-22 15:36:00,
2013-06-22 11:41:00,76.7,59.8,30.17,WNW,300,0.0,2.0,56,0.00,,CLR,0.00,VWS V14.00,2013-06-22 15:41:00,
2013-06-22 11:46:00,76.7,58.8,30.16,West,272,0.0,2.0,54,0.00,,CLR,0.00,VWS V14.00,2013-06-22 15:46:00,
2013-06-22 11:51:00,76.8,58.4,30.16,SE,128,1.0,3.0,53,0.00,,CLR,0.00,VWS V14.00,2013-06-22 15:51:00,
2013-06-22 11:56:00,77.6,61.7,30.16,SW,227,0.0,1.0,58,0.00,,CLR,0.00,VWS V14.00,2013-06-22 15:56:00,
2013-06-22 12:01:00,77.7,59.8,30.15,WSW,250,1.0,4.0,54,0.00,,CLR,0.00,VWS V14.00,2013-06-22 16:01:00,
2013-06-22 12:06:00,77.4,59.0,30.15,SW,233,2.0,5.0,53,0.00,,CLR,0.00,VWS V14.00,2013-06-22 16:06:00,
2013-06-22 12:11:00,77.4,59.5,30.15,WSW,257,1.0,2.0,54,0.00,,CLR,0.00,VWS V14.00,2013-06-22 16:11:00,
2013-06-22 12:16:00,77.7,58.7,30.15,SW,217,1.0,2.0,52,0.00,,CLR,0.00,VWS V14.00,2013-06-22 16:16:00,
2013-06-22 12:21:00,77.9,60.5,30.15,West,261,3.0,3.0,55,0.00,,CLR,0.00,VWS V14.00,2013-06-22 16:21:00,
2013-06-22 12:26:00,77.7,57.6,30.15,WNW,290,2.0,4.0,50,0.00,,CLR,0.00,VWS V14.00,2013-06-22 16:26:00,
2013-06-22 12:31:00,77.6,57.0,30.14,SW,219,3.0,3.0,49,0.00,,CLR,0.00,VWS V14.00,2013-06-22 16:31:00,
2013-06-22 12:36:00,77.7,59.8,30.14,West,273,0.0,5.0,54,0.00,,CLR,0.00,VWS V14.00,2013-06-22 16:36:00,
2013-06-22 12:41:00,77.7,58.7,30.14,West,270,3.0,5.0,52,0.00,,CLR,0.00,VWS V14.00,2013-06-22 16:41:00,
2013-06-22 12:46:00,77.9,58.3,30.14,WNW,286,2.0,2.0,51,0.00,,CLR,0.00,VWS V14.00,2013-06-22 16:46:00,
2013-06-22 12:51:00,78.3,58.2,30.14,West,271,1.0,5.0,50,0.00,,CLR,0.00,VWS V14.00,2013-06-22 16:51:00,
2013-06-22 12:56:00,78.8,59.2,30.14,WNW,296,4.0,4.0,51,0.00,,CLR,0.00,VWS V14.00,2013-06-22 16:56:00,
2013-06-22 13:01:00,78.6,60.6,30.13,West,281,2.0,3.0,54,0.00,,CLR,0.00,VWS V14.00,2013-06-22 17:01:00,
2013-06-22 13:06:00,78.5,58.9,30.13,WNW,286,4.0,4.0,51,0.00,,CLR,0.00,VWS V14.00,2013-06-22 17:06:00,
2013-06-22 13:11:00,78.6,57.9,30.13,WNW,287,1.0,1.0,49,0.00,,CLR,0.00,VWS V14.00,2013-06-22 17:11:00,
2013-06-22 13:16:00,79.2,57.2,30.13,SW,234,3.0,3.0,47,0.00,,CLR,0.00,VWS V14.00,2013-06-22 17:16:00,
2013-06-22 13:21:00,79.0,57.7,30.13,West,261,3.0,3.0,48,0.00,,CLR,0.00,VWS V14.00,2013-06-22 17:21:00,
2013-06-22 13:26:00,79.0,57.1,30.13,West,277,3.0,3.0,47,0.00,,CLR,0.00,VWS V14.00,2013-06-22 17:26:00,
2013-06-22 13:31:00,79.0,59.9,30.12,WNW,286,0.0,1.0,52,0.00,,CLR,0.00,VWS V14.00,2013-06-22 17:31:00,
2013-06-22 13:36:00,79.6,59.9,30.12,WSW,257,3.0,6.0,51,0.00,,CLR,0.00,VWS V14.00,2013-06-22 17:36:00,
2013-06-22 13:41:00,79.6,57.6,30.12,WSW,239,0.0,2.0,47,0.00,,CLR,0.00,VWS V14.00,2013-06-22 17:41:00,
2013-06-22 13:46:00,79.9,59.0,30.12,WNW,283,2.0,4.0,49,0.00,,CLR,0.00,VWS V14.00,2013-06-22 17:46:00,
2013-06-22 13:51:00,80.1,60.9,30.12,SSE,165,0.0,2.0,52,0.00,,CLR,0.00,VWS V14.00,2013-06-22 17:51:00,
2013-06-22 13:57:00,80.3,58.8,30.12,SSW,203,1.0,2.0,48,0.00,,CLR,0.00,VWS V14.00,2013-06-22 17:57:00,
2013-06-22 14:02:00,80.3,61.6,30.12,WSW,249,2.0,3.0,53,0.00,,CLR,0.00,VWS V14.00,2013-06-22 18:02:00,
2013-06-22 14:06:00,79.6,58.2,30.12,WNW,295,0.0,4.0,48,0.00,,CLR,0.00,VWS V14.00,2013-06-22 18:06:00,
2013-06-22 14:12:00,80.1,60.9,30.12,West,267,0.0,4.0,52,0.00,,CLR,0.00,VWS V14.00,2013-06-22 18:12:00,
2013-06-22 14:17:00,80.7,60.3,30.12,East,87,0.0,3.0,50,0.00,,CLR,0.00,VWS V14.00,2013-06-22 18:17:00,
2013-06-22 14:21:00,80.9,60.0,30.12,SE,124,0.0,3.0,49,0.00,,CLR,0.00,VWS V14.00,2013-06-22 18:21:00,
2013-06-22 14:26:00,81.1,60.7,30.12,ESE,118,2.0,3.0,50,0.00,,CLR,0.00,VWS V14.00,2013-06-22 18:26:00,
2013-06-22 14:32:00,80.5,59.6,30.11,WSW,250,3.0,4.0,49,0.00,,CLR,0.00,VWS V14.00,2013-06-22 18:32:00,
2013-06-22 14:37:00,80.1,59.8,30.11,WSW,240,1.0,3.0,50,0.00,,CLR,0.00,VWS V14.00,2013-06-22 18:37:00,
2013-06-22 14:42:00,80.7,60.3,30.11,East,96,1.0,3.0,50,0.00,,CLR,0.00,VWS V14.00,2013-06-22 18:42:00,
2013-06-22 14:47:00,80.7,59.2,30.10,SE,124,4.0,4.0,48,0.00,,CLR,0.00,VWS V14.00,2013-06-22 18:47:00,
2013-06-22 14:52:00,80.9,60.0,30.10,SW,225,2.0,2.0,49,0.00,,CLR,0.00,VWS V14.00,2013-06-22 18:52:00,
2013-06-22 14:57:00,80.5,59.6,30.10,WNW,282,0.0,1.0,49,0.00,,CLR,0.00,VWS V14.00,2013-06-22 18:57:00,
2013-06-22 15:02:00,80.1,61.4,30.10,West,265,2.0,2.0,53,0.00,,CLR,0.00,VWS V14.00,2013-06-22 19:02:00,
2013-06-22 15:07:00,80.9,62.2,30.10,SW,223,1.0,3.0,53,0.00,,CLR,0.00,VWS V14.00,2013-06-22 19:07:00,
2013-06-22 15:12:00,81.1,62.9,30.10,WNW,288,2.0,4.0,54,0.00,,CLR,0.00,VWS V14.00,2013-06-22 19:12:00,
2013-06-22 15:17:00,80.7,61.5,30.09,ESE,111,2.0,3.0,52,0.00,,CLR,0.00,VWS V14.00,2013-06-22 19:17:00,
2013-06-22 15:22:00,80.5,60.2,30.09,WNW,287,3.0,4.0,50,0.00,,CLR,0.00,VWS V14.00,2013-06-22 19:22:00,
2013-06-22 15:27:00,80.1,59.8,30.09,WNW,289,1.0,3.0,50,0.00,,CLR,0.00,VWS V14.00,2013-06-22 19:27:00,
2013-06-22 15:32:00,80.5,61.3,30.08,South,171,4.0,6.0,52,0.00,,CLR,0.00,VWS V14.00,2013-06-22 19:32:00,
2013-06-22 15:37:00,81.1,60.7,30.08,SE,144,0.0,5.0,50,0.00,,CLR,0.00,VWS V14.00,2013-06-22 19:37:00,
2013-06-22 15:42:00,80.9,61.1,30.08,WSW,254,1.0,3.0,51,0.00,,CLR,0.00,VWS V14.00,2013-06-22 19:42:00,
2013-06-22 15:47:00,80.5,60.2,30.07,SW,219,1.0,3.0,50,0.00,,CLR,0.00,VWS V14.00,2013-06-22 19:47:00,
2013-06-22 15:52:00,80.7,61.5,30.07,WSW,240,1.0,4.0,52,0.00,,CLR,0.00,VWS V14.00,2013-06-22 19:52:00,
2013-06-22 15:57:00,80.7,60.9,30.07,SW,229,4.0,4.0,51,0.00,,CLR,0.00,VWS V14.00,2013-06-22 19:57:00,
2013-06-22 16:02:00,81.4,62.1,30.07,ENE,67,4.0,5.0,52,0.00,,CLR,0.00,VWS V14.00,2013-06-22 20:02:00,
2013-06-22 16:07:00,81.4,61.5,30.07,West,261,0.0,2.0,51,0.00,,CLR,0.00,VWS V14.00,2013-06-22 20:07:00,
2013-06-22 16:12:00,81.1,61.8,30.07,WSW,250,1.0,2.0,52,0.00,,CLR,0.00,VWS V14.00,2013-06-22 20:12:00,
2013-06-22 16:17:00,80.9,59.4,30.07,WSW,245,0.0,2.0,48,0.00,,CLR,0.00,VWS V14.00,2013-06-22 20:17:00,
2013-06-22 16:22:00,81.2,61.4,30.07,East,87,1.0,3.0,51,0.00,,CLR,0.00,VWS V14.00,2013-06-22 20:22:00,
2013-06-22 16:27:00,80.9,60.0,30.07,SSE,152,1.0,2.0,49,0.00,,CLR,0.00,VWS V14.00,2013-06-22 20:27:00,
2013-06-22 16:32:00,80.9,60.5,30.07,West,262,2.0,3.0,50,0.00,,CLR,0.00,VWS V14.00,2013-06-22 20:32:00,
2013-06-22 16:37:00,81.1,60.7,30.07,WNW,301,6.0,6.0,50,0.00,,CLR,0.00,VWS V14.00,2013-06-22 20:37:00,
2013-06-22 16:42:00,80.7,59.2,30.07,ESE,106,3.0,3.0,48,0.00,,CLR,0.00,VWS V14.00,2013-06-22 20:42:00,
2013-06-22 16:47:00,80.7,60.9,30.07,SSE,160,2.0,2.0,51,0.00,,CLR,0.00,VWS V14.00,2013-06-22 20:47:00,
2013-06-22 16:52:00,80.7,59.2,30.07,ESE,103,2.0,7.0,48,0.00,,CLR,0.00,VWS V14.00,2013-06-22 20:52:00,
2013-06-22 16:57:00,80.3,61.1,30.07,SSW,202,1.0,1.0,52,0.00,,CLR,0.00,VWS V14.00,2013-06-22 20:57:00,
2013-06-22 17:02:00,80.1,62.0,30.06,ESE,118,0.0,2.0,54,0.00,,CLR,0.00,VWS V14.00,2013-06-22 21:02:00,
2013-06-22 17:07:00,80.1,62.5,30.06,WNW,292,0.0,2.0,55,0.00,,CLR,0.00,VWS V14.00,2013-06-22 21:07:00,
2013-06-22 17:12:00,79.6,60.4,30.06,West,279,1.0,2.0,52,0.00,,CLR,0.00,VWS V14.00,2013-06-22 21:12:00,
2013-06-22 17:17:00,79.4,59.7,30.06,WNW,288,4.0,5.0,51,0.00,,CLR,0.00,VWS V14.00,2013-06-22 21:17:00,
2013-06-22 17:22:00,79.4,59.7,30.06,SSE,158,1.0,2.0,51,0.00,,CLR,0.00,VWS V14.00,2013-06-22 21:22:00,
2013-06-22 17:27:00,79.4,61.3,30.06,SSE,158,0.0,1.0,54,0.00,,CLR,0.00,VWS V14.00,2013-06-22 21:27:00,
2013-06-22 17:32:00,79.6,60.4,30.06,East,97,0.0,1.0,52,0.00,,CLR,0.00,VWS V14.00,2013-06-22 21:32:00,
2013-06-22 17:37:00,79.4,60.8,30.06,SSE,147,1.0,1.0,53,0.00,,CLR,0.00,VWS V14.00,2013-06-22 21:37:00,
2013-06-22 17:42:00,79.6,62.0,30.06,SSE,147,0.0,1.0,55,0.00,,CLR,0.00,VWS V14.00,2013-06-22 21:42:00,
2013-06-22 17:47:00,79.4,61.3,30.05,SSE,147,0.0,1.0,54,0.00,,CLR,0.00,VWS V14.00,2013-06-22 21:47:00,
2013-06-22 17:52:00,79.2,62.2,30.05,SSE,151,1.0,1.0,56,0.00,,CLR,0.00,VWS V14.00,2013-06-22 21:52:00,
2013-06-22 17:57:00,79.0,61.5,30.05,SE,142,0.0,1.0,55,0.00,,CLR,0.00,VWS V14.00,2013-06-22 21:57:00,
2013-06-22 18:02:00,79.0,62.0,30.05,East,96,0.0,0.0,56,0.00,,CLR,0.00,VWS V14.00,2013-06-22 22:02:00,
2013-06-22 18:07:00,78.8,61.3,30.05,SE,132,1.0,2.0,55,0.00,,CLR,0.00,VWS V14.00,2013-06-22 22:07:00,
2013-06-22 18:12:00,78.8,61.8,30.05,SE,125,4.0,4.0,56,0.00,,CLR,0.00,VWS V14.00,2013-06-22 22:12:00,
2013-06-22 18:17:00,78.5,62.0,30.04,ESE,113,1.0,3.0,57,0.00,,CLR,0.00,VWS V14.00,2013-06-22 22:17:00,
2013-06-22 18:22:00,78.1,62.1,30.04,East,98,3.0,3.0,58,0.00,,CLR,0.00,VWS V14.00,2013-06-22 22:22:00,
2013-06-22 18:27:00,77.7,61.8,30.04,ESE,109,0.0,4.0,58,0.00,,CLR,0.00,VWS V14.00,2013-06-22 22:27:00,
2013-06-22 18:33:00,77.6,62.2,30.05,ESE,107,3.0,3.0,59,0.00,,CLR,0.00,VWS V14.00,2013-06-22 22:33:00,
2013-06-22 18:38:00,77.4,62.4,30.05,SE,144,1.0,4.0,60,0.00,,CLR,0.00,VWS V14.00,2013-06-22 22:38:00,
2013-06-22 18:43:00,77.2,62.2,30.05,SSE,153,1.0,4.0,60,0.00,,CLR,0.00,VWS V14.00,2013-06-22 22:43:00,
2013-06-22 18:48:00,77.2,61.8,30.04,SE,126,2.0,3.0,59,0.00,,CLR,0.00,VWS V14.00,2013-06-22 22:48:00,
2013-06-22 18:53:00,77.0,61.6,30.04,ENE,77,4.0,4.0,59,0.00,,CLR,0.00,VWS V14.00,2013-06-22 22:53:00,
2013-06-22 18:58:00,77.0,62.1,30.04,East,88,0.0,3.0,60,0.00,,CLR,0.00,VWS V14.00,2013-06-22 22:58:00,
2013-06-22 19:03:00,76.8,62.3,30.04,NE,37,1.0,2.0,61,0.00,,CLR,0.00,VWS V14.00,2013-06-22 23:03:00,
2013-06-22 19:08:00,76.7,62.2,30.04,SE,146,3.0,7.0,61,0.00,,CLR,0.00,VWS V14.00,2013-06-22 23:08:00,
2013-06-22 19:13:00,76.5,62.1,30.04,SSE,155,1.0,2.0,61,0.00,,CLR,0.00,VWS V14.00,2013-06-22 23:13:00,
2013-06-22 19:18:00,76.3,61.9,30.05,ESE,105,0.0,3.0,61,0.00,,CLR,0.00,VWS V14.00,2013-06-22 23:18:00,
2013-06-22 19:23:00,76.3,61.9,30.05,ESE,112,0.0,3.0,61,0.00,,CLR,0.00,VWS V14.00,2013-06-22 23:23:00,
2013-06-22 19:28:00,76.1,61.7,30.05,SE,146,3.0,4.0,61,0.00,,CLR,0.00,VWS V14.00,2013-06-22 23:28:00,
2013-06-22 19:33:00,76.0,61.6,30.05,East,90,0.0,3.0,61,0.00,,CLR,0.00,VWS V14.00,2013-06-22 23:33:00,
2013-06-22 19:38:00,75.8,61.4,30.05,SE,132,3.0,3.0,61,0.00,,CLR,0.00,VWS V14.00,2013-06-22 23:38:00,
2013-06-22 19:43:00,75.6,61.2,30.05,SSE,155,5.0,5.0,61,0.00,,CLR,0.00,VWS V14.00,2013-06-22 23:43:00,
2013-06-22 19:48:00,75.4,61.0,30.05,SE,138,0.0,4.0,61,0.00,,CLR,0.00,VWS V14.00,2013-06-22 23:48:00,
2013-06-22 19:53:00,75.1,60.8,30.05,SSE,159,2.0,3.0,61,0.00,,CLR,0.00,VWS V14.00,2013-06-22 23:53:00,
2013-06-22 19:58:00,74.9,60.6,30.05,ESE,102,0.0,3.0,61,0.00,,CLR,0.00,VWS V14.00,2013-06-22 23:58:00,
2013-06-22 20:03:00,74.6,60.7,30.05,ESE,121,0.0,2.0,62,0.00,,CLR,0.00,VWS V14.00,2013-06-23 00:03:00,
2013-06-22 20:08:00,74.4,60.5,30.05,ESE,120,4.0,5.0,62,0.00,,CLR,0.00,VWS V14.00,2013-06-23 00:08:00,
2013-06-22 20:13:00,74.0,60.6,30.05,SE,128,1.0,3.0,63,0.00,,CLR,0.00,VWS V14.00,2013-06-23 00:13:00,
2013-06-22 20:18:00,73.9,60.5,30.05,SSE,156,1.0,2.0,63,0.00,,CLR,0.00,VWS V14.00,2013-06-23 00:18:00,
2013-06-22 20:23:00,73.5,60.2,30.05,ESE,109,0.0,1.0,63,0.00,,CLR,0.00,VWS V14.00,2013-06-23 00:23:00,
2013-06-22 20:28:00,73.3,60.4,30.05,ESE,121,2.0,5.0,64,0.00,,CLR,0.00,VWS V14.00,2013-06-23 00:28:00,
2013-06-22 20:33:00,73.0,60.1,30.05,SE,144,1.0,1.0,64,0.00,,CLR,0.00,VWS V14.00,2013-06-23 00:33:00,
2013-06-22 20:38:00,72.8,59.9,30.05,ESE,108,2.0,3.0,64,0.00,,CLR,0.00,VWS V14.00,2013-06-23 00:38:00,
2013-06-22 20:43:00,72.5,59.6,30.05,SSE,162,3.0,5.0,64,0.00,,CLR,0.00,VWS V14.00,2013-06-23 00:43:00,
2013-06-22 20:48:00,72.1,59.3,30.06,ESE,113,3.0,3.0,64,0.00,,CLR,0.00,VWS V14.00,2013-06-23 00:48:00,
2013-06-22 20:53:00,72.0,59.6,30.06,East,80,1.0,3.0,65,0.00,,CLR,0.00,VWS V14.00,2013-06-23 00:53:00,
2013-06-22 20:58:00,71.8,59.4,30.06,ESE,117,0.0,1.0,65,0.00,,CLR,0.00,VWS V14.00,2013-06-23 00:58:00,
2013-06-22 21:03:00,71.6,59.2,30.06,ESE,108,1.0,1.0,65,0.00,,CLR,0.00,VWS V14.00,2013-06-23 01:03:00,
2013-06-22 21:08:00,71.3,59.4,30.06,ESE,121,1.0,3.0,66,0.00,,CLR,0.00,VWS V14.00,2013-06-23 01:08:00,
2013-06-22 21:13:00,71.1,59.2,30.06,SSE,157,0.0,5.0,66,0.00,,CLR,0.00,VWS V14.00,2013-06-23 01:13:00,
2013-06-22 21:18:00,70.9,59.0,30.07,East,84,2.0,3.0,66,0.00,,CLR,0.00,VWS V14.00,2013-06-23 01:18:00,
2013-06-22 21:23:00,70.8,58.9,30.07,East,86,0.0,2.0,66,0.00,,CLR,0.00,VWS V14.00,2013-06-23 01:23:00,
2013-06-22 21:28:00,70.4,58.9,30.07,ENE,76,0.0,2.0,67,0.00,,CLR,0.00,VWS V14.00,2013-06-23 01:28:00,
2013-06-22 21:33:00,70.3,58.8,30.08,East,83,2.0,3.0,67,0.00,,CLR,0.00,VWS V14.00,2013-06-23 01:33:00,
2013-06-22 21:38:00,70.1,58.7,30.08,East,86,1.0,3.0,67,0.00,,CLR,0.00,VWS V14.00,2013-06-23 01:38:00,
2013-06-22 21:43:00,69.8,58.4,30.08,ENE,78,0.0,1.0,67,0.00,,CLR,0.00,VWS V14.00,2013-06-23 01:43:00,
2013-06-22 21:48:00,69.6,58.2,30.09,ENE,59,1.0,3.0,67,0.00,,CLR,0.00,VWS V14.00,2013-06-23 01:48:00,
2013-06-22 21:53:00,69.4,58.0,30.09,South,181,0.0,4.0,67,0.00,,CLR,0.00,VWS V14.00,2013-06-23 01:53:00,
2013-06-22 21:58:00,69.3,57.9,30.09,SSE,150,1.0,4.0,67,0.00,,CLR,0.00,VWS V14.00,2013-06-23 01:58:00,
2013-06-22 22:03:00,69.1,57.7,30.09,ESE,107,1.0,1.0,67,0.00,,CLR,0.00,VWS V14.00,2013-06-23 02:03:00,
2013-06-22 22:08:00,68.9,57.5,30.09,SE,146,2.0,2.0,67,0.00,,CLR,0.00,VWS V14.00,2013-06-23 02:08:00,
2013-06-22 22:13:00,68.8,57.4,30.09,SE,145,0.0,3.0,67,0.00,,CLR,0.00,VWS V14.00,2013-06-23 02:13:00,
2013-06-22 22:18:00,68.6,57.2,30.08,SE,145,1.0,1.0,67,0.00,,CLR,0.00,VWS V14.00,2013-06-23 02:18:00,
2013-06-22 22:23:00,68.6,57.2,30.08,SE,143,0.0,1.0,67,0.00,,CLR,0.00,VWS V14.00,2013-06-23 02:23:00,
2013-06-22 22:28:00,68.4,57.0,30.08,ENE,76,0.0,1.0,67,0.00,,CLR,0.00,VWS V14.00,2013-06-23 02:28:00,
2013-06-22 22:33:00,68.3,56.9,30.09,ESE,118,2.0,2.0,67,0.00,,CLR,0.00,VWS V14.00,2013-06-23 02:33:00,
2013-06-22 22:38:00,68.3,56.9,30.09,ESE,114,0.0,2.0,67,0.00,,CLR,0.00,VWS V14.00,2013-06-23 02:38:00,
2013-06-22 22:43:00,68.1,57.2,30.09,ESE,113,0.0,0.0,68,0.00,,CLR,0.00,VWS V14.00,2013-06-23 02:43:00,
2013-06-22 22:48:00,67.9,56.5,30.09,SE,144,0.0,2.0,67,0.00,,CLR,0.00,VWS V14.00,2013-06-23 02:48:00,
2013-06-22 22:53:00,67.8,56.9,30.09,ESE,115,0.0,0.0,68,0.00,,CLR,0.00,VWS V14.00,2013-06-23 02:53:00,
2013-06-22 22:58:00,67.6,56.7,30.09,ESE,119,0.0,1.0,68,0.00,,CLR,0.00,VWS V14.00,2013-06-23 02:58:00,
2013-06-22 23:03:00,67.4,56.5,30.09,ESE,119,0.0,0.0,68,0.00,,CLR,0.00,VWS V14.00,2013-06-23 03:03:00,
2013-06-22 23:08:00,67.4,56.5,30.09,ESE,119,0.0,0.0,68,0.00,,CLR,0.00,VWS V14.00,2013-06-23 03:08:00,
2013-06-22 23:13:00,67.3,56.4,30.09,ESE,122,0.0,2.0,68,0.00,,CLR,0.00,VWS V14.00,2013-06-23 03:13:00,
2013-06-22 23:18:00,67.1,56.2,30.09,SE,130,0.0,1.0,68,0.00,,CLR,0.00,VWS V14.00,2013-06-23 03:18:00,
2013-06-22 23:23:00,67.1,56.2,30.09,SE,130,0.0,3.0,68,0.00,,CLR,0.00,VWS V14.00,2013-06-23 03:23:00,
2013-06-22 23:28:00,66.9,56.0,30.09,ESE,105,0.0,1.0,68,0.00,,CLR,0.00,VWS V14.00,2013-06-23 03:28:00,
2013-06-22 23:33:00,66.8,55.9,30.09,ESE,104,0.0,0.0,68,0.00,,CLR,0.00,VWS V14.00,2013-06-23 03:33:00,
2013-06-22 23:38:00,66.8,55.9,30.09,SSE,166,0.0,3.0,68,0.00,,CLR,0.00,VWS V14.00,2013-06-23 03:38:00,
2013-06-22 23:43:00,66.6,55.3,30.09,ESE,121,1.0,2.0,67,0.00,,CLR,0.00,VWS V14.00,2013-06-23 03:43:00,
2013-06-22 23:48:00,66.4,55.1,30.09,SSE,150,0.0,3.0,67,0.00,,CLR,0.00,VWS V14.00,2013-06-23 03:48:00,
2013-06-22 23:53:00,66.4,55.1,30.09,ESE,113,1.0,2.0,67,0.00,,CLR,0.00,VWS V14.00,2013-06-23 03:53:00,
2013-06-22 23:58:00,66.4,55.1,30.09,ESE,123,0.0,1.0,67,0.00,,CLR,0.00,VWS V14.00,2013-06-23 03:58:00,